Location: George Washington National Forest Helicopter Landing Site
(38.6463°N, 79.0851°W)
Time: 03:29:33
(UTC-04:00)

A-11 Canister half - Visible Passes

Search period start: 24 August 2019 00:00
Search period end: 03 September 2019 00:00
Orbit: 1514 x 1686 km, 47.2° (Epoch: 23 August)

Date Brightness Start Highest point End Pass type
(mag) Time Alt. Az. Time Alt. Az. Time Alt. Az.
24 Aug 10.2 01:52:14 10° WNW 01:56:19 27° WNW 01:56:19 27° WNW visible
24 Aug 9.7 21:18:18 10° WNW 21:27:33 51° N 21:37:09 10° ENE visible
24 Aug 9.1 23:24:03 10° WNW 23:33:47 70° NNE 23:35:53 57° ENE visible
25 Aug 10.1 01:29:16 10° WNW 01:34:01 31° W 01:34:01 31° W visible
25 Aug 9.7 20:55:18 10° WNW 21:04:31 52° N 21:14:05 10° ENE visible
25 Aug 9.2 23:01:07 10° WNW 23:10:48 68° NNE 23:13:39 50° E visible
26 Aug 9.9 01:06:18 10° WNW 01:11:48 36° W 01:11:48 36° W visible
26 Aug 9.7 20:32:19 10° W 20:41:31 52° N 20:51:03 10° ENE visible
26 Aug 9.2 22:38:11 10° WNW 22:47:49 66° NNE 22:51:29 42° E visible
27 Aug 9.7 00:43:21 10° WNW 00:49:38 42° W 00:49:38 42° W visible
27 Aug 9.7 20:09:20 10° W 20:18:30 52° N 20:28:00 10° ENE visible
27 Aug 9.3 22:15:15 10° WNW 22:24:49 64° NNE 22:29:21 36° E visible
28 Aug 9.5 00:20:24 10° WNW 00:27:31 50° W 00:27:31 50° W visible
28 Aug 9.3 21:52:19 10° WNW 22:01:50 62° NNE 22:07:16 30° E visible
28 Aug 9.3 23:57:27 10° WNW 00:05:26 58° W 00:05:26 58° W visible
29 Aug 9.3 21:29:22 10° WNW 21:38:50 60° NNE 21:45:14 24° E visible
29 Aug 9.1 23:34:31 10° WNW 23:43:24 66° WSW 23:43:24 66° WSW visible
30 Aug 11.0 01:41:22 10° W 01:41:34 11° W 01:41:34 11° W visible
30 Aug 9.4 21:06:25 10° WNW 21:15:50 59° NNE 21:23:14 19° E visible
30 Aug 8.9 23:11:34 10° WNW 23:21:13 72° SW 23:21:25 72° SSW visible
31 Aug 10.9 01:18:10 10° W 01:19:35 14° W 01:19:35 14° W visible
31 Aug 9.4 20:43:30 10° WNW 20:52:50 58° NNE 21:01:18 14° E visible
31 Aug 8.9 22:48:39 10° WNW 22:58:17 75° SW 22:59:28 68° SSE visible
01 Sep 10.7 00:54:59 10° W 00:57:38 17° W 00:57:38 17° W visible
01 Sep 9.5 20:20:33 10° WNW 20:29:50 56° NNE 20:39:23 10° E visible
01 Sep 9.0 22:25:44 10° WNW 22:35:22 79° SW 22:37:34 59° SE visible
02 Sep 10.5 00:31:52 10° WNW 00:35:45 21° W 00:35:45 21° W visible
02 Sep 9.5 19:57:36 10° WNW 20:06:50 55° NNE 20:16:24 10° E visible
02 Sep 9.0 22:02:48 10° WNW 22:12:26 82° SSW 22:15:42 49° SE visible
